Location: Earls Croome
(52.0667°N, 2.2000°W)
Time: 04:16:56
(UTC+00:00)

ATLAS CENTAUR R/B - Pass Details

Date: 17 November 2019
Orbit: 457 x 691 km, 64.7° (Epoch: 30 November)

Event Time Altitude Azimuth Distance (km) Brightness Sun altitude
Rises 06:26:17 0° 223° (SW) 3,054 4.9 -10.0°
Reaches altitude 10° 06:28:38 10° 224° (SW) 2,134 4.1 -9.6°
Maximum altitude 06:33:32 85° 312° (NW) 683 1.7 -8.9°
Drops below altitude 10° 06:38:17 10° 42° (NE) 2,064 4.5 -8.2°
Sets 06:40:32 0° 43° (NE) 2,945 5.4 -7.9°
